Satellite: AUBIESAT Catalog number: 37854 Epoch time: 13318.65443439 Element set: 630 Inclination: 101.7038 deg RA of node: 243.2602 deg Eccentricity: 0.0228878 Arg of perigee: 313.8478 deg Mean anomaly: 164.3392 deg Mean motion: 14.86191023 rev/day Decay rate: 1.5427e-04 rev/day^2 Epoch rev: 11079 Checksum: 305
Satellite: HRBE Catalog number: 37855 Epoch time: 13318.29856815 Element set: 638 Inclination: 101.7038 deg RA of node: 242.3748 deg Eccentricity: 0.0230209 Arg of perigee: 315.6117 deg Mean anomaly: 196.1329 deg Mean motion: 14.85735245 rev/day Decay rate: 1.3643e-04 rev/day^2 Epoch rev: 11072 Checksum: 305
Satellite: RS-39 Catalog number: 38051 Epoch time: 13318.74095971 Element set: 972 Inclination: 051.6342 deg RA of node: 201.5727 deg Eccentricity: 0.0011517 Arg of perigee: 097.9055 deg Mean anomaly: 007.8050 deg Mean motion: 15.37839476 rev/day Decay rate: 3.8343e-04 rev/day^2 Epoch rev: 10090 Checksum: 312
Satellite: E-STAR Catalog number: 38079 Epoch time: 13318.60332036 Element set: 600 Inclination: 069.4681 deg RA of node: 177.4882 deg Eccentricity: 0.0543948 Arg of perigee: 295.4935 deg Mean anomaly: 088.1437 deg Mean motion: 14.64687357 rev/day Decay rate: 6.6280e-04 rev/day^2 Epoch rev: 9161 Checksum: 342
Satellite: GOLIAT Catalog number: 38085 Epoch time: 13318.72341275 Element set: 537 Inclination: 069.4770 deg RA of node: 180.7576 deg Eccentricity: 0.0556944 Arg of perigee: 297.1176 deg Mean anomaly: 057.4185 deg Mean motion: 14.61781848 rev/day Decay rate: 6.2324e-04 rev/day^2 Epoch rev: 9153 Checksum: 339
Satellite: HORYU-2 Catalog number: 38340 Epoch time: 13318.35011879 Element set: 669 Inclination: 098.2338 deg RA of node: 267.4719 deg Eccentricity: 0.0013388 Arg of perigee: 133.0276 deg Mean anomaly: 227.2009 deg Mean motion: 14.71374388 rev/day Decay rate: 2.799e-05 rev/day^2 Epoch rev: 8019 Checksum: 327
Satellite: RS-40 Catalog number: 38736 Epoch time: 13318.36267432 Element set: 424 Inclination: 082.4798 deg RA of node: 061.4873 deg Eccentricity: 0.0021020 Arg of perigee: 001.6803 deg Mean anomaly: 358.4356 deg Mean motion: 12.42873158 rev/day Decay rate: 1.0e-07 rev/day^2 Epoch rev: 5890 Checksum: 289
Satellite: PROITERES Catalog number: 38756 Epoch time: 13318.78338690 Element set: 301 Inclination: 098.2436 deg RA of node: 038.5185 deg Eccentricity: 0.0012665 Arg of perigee: 353.2919 deg Mean anomaly: 006.8107 deg Mean motion: 14.74434860 rev/day Decay rate: 1.306e-05 rev/day^2 Epoch rev: 6358 Checksum: 310
Satellite: RAIKO Catalog number: 38852 Epoch time: 13218.07382584 Element set: 340 Inclination: 051.6160 deg RA of node: 184.0336 deg Eccentricity: 0.0004489 Arg of perigee: 261.9162 deg Mean anomaly: 100.6538 deg Mean motion: 16.48474690 rev/day Decay rate: 2.4681979e-01 rev/day^2 Epoch rev: 4784 Checksum: 326
Satellite: BEESAT-3 Catalog number: 39134 Epoch time: 13317.86962954 Element set: 421 Inclination: 064.8643 deg RA of node: 098.1048 deg Eccentricity: 0.0005360 Arg of perigee: 326.9654 deg Mean anomaly: 033.1136 deg Mean motion: 15.01588011 rev/day Decay rate: 9.207e-05 rev/day^2 Epoch rev: 3129 Checksum: 293
Satellite: BEESAT-2 Catalog number: 39136 Epoch time: 13318.81050977 Element set: 411 Inclination: 064.8751 deg RA of node: 095.2052 deg Eccentricity: 0.0006509 Arg of perigee: 328.6896 deg Mean anomaly: 031.4333 deg Mean motion: 15.01440349 rev/day Decay rate: 7.831e-05 rev/day^2 Epoch rev: 3143 Checksum: 286
/EX